SL-24 R/B

Satellite information

Favourite Embed

Satellite Type and Status

ROCKET BODYIN ORBIT

Key statistics

Satellite SL-24 R/B at a glance.

Uptime

6226

Days in orbit

Revolutions

≈ 13.9

Per day

Orbit

SSO

Sun Synchronous Orbit

Inclination

98.7

Latest

Satellite identification and parameters

Extended collection of information and parameters for SL-24 R/B.

Object identification

Identified? True

Debris? False

Object name: SL-24 R/B

International designator: 2008-049B

Object number (NORAD): 33397

Object ID (CCSDS): 33397

Country: COMMONWEALTH OF INDEPENDENT STATES (CIS)

Current information (Y/N): Y

RCS size: LARGE

Orbital parameters

Period: 103.45 minutes

Inclination: 98.7074 deg

SMA: 7299.862 km

Apoapsis: 1168.051 km

Periapsis: 675.404 km

RAAN: 71.7724 deg

Eccentricy: 0.03374357

Argument of periapsis: 321.7879 deg

Mean anomaly: 145.7691 deg

Mean motion: 13.91972816 rev/day

Mean motion (dot): 0.00000007 rev/day2

B* drag term: 0.000026126801 1/REarth

Two-line elements (TLE)

Creation date: Oct. 18, 2025, 2:17 a.m.

Reference frame: TEME

Reference center: EARTH

Epoch: Oct. 17, 2025, 11:56 p.m. UTC

TLE line 0: 0 SL-24 R/B

TLE line 1: 1 33397U 08049B 25290.99782729 .00000007 00000-0 26127-4 0 9996

TLE line 2: 2 33397 98.7074 71.7724 0337436 321.7879 145.7691 13.91972816865855

Live tracking on map

Real-time ground track for satellite SL-24 R/B.

In-orbit conjunctions

A list of the most updated potential collisions computed for object SL-24 R/B.

Target Orbit TCA Probability of collision Miss distance Type
COSMOS 1275 DEB LEO 2025-05-08 08:45:15 0.0002673984 126.0 (m) DEBRIS
CZ-6A DEB LEO 2025-02-05 13:39:33 0.0004368715 124.0 (m) DEBRIS
NOAA 11 DEB SSO 2024-10-03 20:46:17 0.0008924346 273.0 (m) DEBRIS

Associated space launch

Thai Earth observation satellite

SL-24 R/B was lifted into orbit during the mission ‘Dnepr | Thaichote’, on board a Dnepr space rocket.

The launch took place on Oct. 1, 2008, 6:37 a.m. from 370/13.

For more information about the launch, click the button.

Launch to space Dnepr | Thaichote
Dnepr | Thaichote

Agency: N/A

Status: Launch Successful

Launch date: Oct. 1, 2008, 6:37 a.m. UTC

Rocket: Dnepr

Launch pad: 370/13

Location: Dombarovskiy, Russian Federation

...

Latest news about this satellite

There are no fresh news available about this satellite. Check back as we update our databases every day.


Newsletter sign-up

Weekly statistics, charts and insights to help you stay on top of the space industry.